Flag for United Kingdom Weather past 2 weeks in Bournemouth, England, United Kingdom

Now
43 °F

Broken clouds.


Feels Like: 34 °F
Forecast: 35 / 42 °F
Wind: 21 mph from North

Location: Bournemouth Airport

Current Time: Jan 31, 2015 at 2:08:07 PM

Latest Report: Jan 31, 2015 at 1:20 PM


Visibility: N/A

Pressure: 29.15 "Hg

Humidity: 71%

Dew point: 34 °F

Location of BournemouthLocation

Historic Weather in Bournemouth — Graph

°F

Bournemouth temperature yesterday

Maximum temperature yesterday: 45 °F (at 11:50 AM)
Minimum temperature yesterday: 30 °F (at 10:50 PM)
Average temperature yesterday: 39 °F

Past Weeks' High & Low Weather Summary

 TemperatureHumidityPressure
High52 °F (Jan 26, 10:20 AM)100% (Jan 17, 8:20 AM)30.51 "Hg (Jan 17, 8:20 AM)
Low21 °F (Jan 23, 4:50 AM)57% (Jan 28, 2:20 PM)28.82 "Hg (Jan 30, 4:50 AM)
Average39 °F85%29.86 "Hg
* Reported Jan 16 1:20 PM — Jan 31 1:20 PM, Bournemouth, Weather by CustomWeather, © 2014

Note: Actual official high and low records may vary slightly from our data, if they occured in-between our weather recording intervals... More about our weather records

Advertising

Bournemouth weather history for previous 24 hours

 ConditionsComfort  
Time TempWeatherWind HumidityBarometerVisibility
1:20 PM
Jan 31
43 °FBroken clouds.21 mph71%29.15 "HgN/A
12:50 PM43 °FPartly sunny.22 mph71%29.15 "HgN/A
12:20 PM43 °FBroken clouds.20 mph71%29.12 "HgN/A
11:50 AM43 °FScattered clouds.20 mph76%29.12 "HgN/A
11:20 AM41 °FPartly sunny.14 mph81%29.09 "HgN/A
10:50 AM41 °FPartly sunny.21 mph81%29.09 "HgN/A
10:20 AM41 °FPartly sunny.17 mph87%29.06 "HgN/A
9:50 AM41 °FScattered clouds.16 mph87%29.06 "HgN/A
9:20 AM41 °FScattered clouds.17 mph81%29.03 "HgN/A
8:50 AM39 °FScattered clouds.17 mph87%29.03 "HgN/A
8:20 AM39 °FPassing clouds.14 mph81%29.03 "HgN/A
7:50 AM37 °FSunny.14 mph87%29.00 "Hg10 mi
7:20 AM36 °FClear.12 mph87%29.00 "Hg10 mi
6:50 AM37 °FClear.13 mph81%29.00 "Hg10 mi
6:20 AM36 °FClear.12 mph87%29.00 "Hg10 mi
5:50 AM36 °FClear.12 mph87%29.00 "Hg10 mi
5:20 AM36 °FClear.12 mph87%29.00 "Hg10 mi
4:50 AM36 °FClear.12 mph87%29.00 "Hg10 mi
3:50 AM34 °FClear.12 mph93%29.00 "Hg10 mi
3:20 AM34 °FClear.10 mph87%29.00 "Hg10 mi
2:50 AM34 °FClear.8 mph87%29.00 "Hg10 mi
2:20 AM32 °FClear.8 mph87%29.00 "Hg10 mi
1:50 AM32 °FClear.5 mph93%29.00 "Hg10 mi
1:20 AM32 °FClear.9 mph87%29.00 "Hg10 mi
11:50 PM
Jan 30
32 °FClear.7 mph93%29.00 "Hg10 mi
11:20 PM30 °FClear.8 mph93%29.00 "Hg10 mi
10:50 PM30 °FClear.8 mph93%29.00 "Hg10 mi
10:20 PM32 °FClear.6 mph93%29.00 "Hg10 mi
9:20 PM32 °FClear.6 mph93%29.00 "Hg10 mi
8:50 PM34 °FClear.7 mph87%29.00 "Hg10 mi
8:20 PM36 °FClear.9 mph87%29.00 "Hg10 mi
7:50 PM37 °FClear.12 mph87%29.00 "Hg10 mi
7:20 PM37 °FClear.12 mph87%29.00 "Hg10 mi
6:50 PM37 °FPassing clouds.10 mph87%29.00 "HgN/A
6:20 PM39 °FPassing clouds.13 mph87%29.00 "HgN/A
5:50 PM39 °FPassing clouds.9 mph87%28.97 "HgN/A
5:20 PM41 °FPassing clouds.12 mph87%28.97 "HgN/A
4:50 PM41 °FPassing clouds.13 mph87%28.97 "HgN/A
4:20 PM43 °FScattered clouds.10 mph87%28.97 "HgN/A
3:50 PM45 °FScattered clouds.13 mph76%28.97 "HgN/A
3:20 PM45 °FScattered clouds.14 mph76%28.97 "HgN/A
2:50 PM45 °FBroken clouds.14 mph81%28.97 "HgN/A
2:20 PM45 °FBroken clouds.13 mph76%28.97 "HgN/A
Weather by CustomWeather, © 2014

See weather overviewHow to use our weather pages